sat.trackr.live / text

‹ back to catalog

HULIANWANG DIGUI-122

NORAD 67062 · 2025-295D

PAYLOAD ACTIVE UNKNOWN

§ Identity

Operator
Country
PRC
Launch date
2025-12-11
Launch site
WSC
Launch vehicle
Mass (kg)
RCS (m²)

External: N2YO · Heavens-Above · Gunter

§ Orbital elements

Epoch: 2026-05-25T03:02:16.131840Z

Period
108.33 min
Inclination
50.0024°
Eccentricity
0.0000828
Mean motion
13.29328769 rev/d
Perigee alt
1,148.7 km
Apogee alt
1,149.9 km
Semi-major
7,527.4 km
B*
8.6601e-5
RAAN
108.2691°
Arg perigee
353.1554°
Mean anomaly
6.9307°
Rev number
2,243

§ Raw data

HULIANWANG DIGUI-1221 67062U 25295D   26145.12657560 -.00000084  00000+0  86601-4 0  99912 67062  50.0024 108.2691 0000828 353.1554   6.9307 13.29328769 22431

JSON: /api/v1/satellites/67062 · /tle

For live sub-satellite position, see the globe view (requires WebGL).

§ Visibility from observer

Set your observer location to see the next 7 days of passes ≥ 10°. The values pass through the URL so the page stays shareable.

No JS? Fill the form by hand. The geolocation button needs JavaScript.